Weather in Kishpek

Russia / The Kabardino-Balkar Republic     43°38′54″N   43°38′12″E
temp.,
°C
wind,
m/s
gust,
m/s
humid.,
%
clouds,
%
prec.,
mm/h
press.,
hPa
HPBL,
m
19 january, tue
tue1900:00−2e1191100 0.1 1017176
03:00−3nne3596100 0.7 1019399
06:00−4n2495100 0.8 1021215
09:00−4sse3491100 0.8 1022214
12:00−1sse457435 0.0 1020424
15:00+1se236318 0.0 1018616
18:00−3ene22810 0.0 102221
21:00−4ne11841 0.0 102221
20 january, wed
wed2000:00−4nnw3385100 0.0 102396
03:00−4n1295100 0.3 1023128
06:00−4nne2395100 0.3 1024161
09:00−4n1293100 0.9 1025218
12:00−3ne3491100 0.6 1024372
15:00−3ne3483100 1.1 1024520
18:00−5nne1289100 0.1 102729
21:00−5wsw1189100 0.1 102821
21 january, thu
thu2100:00−6w128755 0.0 102921
03:00−7nw238146 0.0 103047
06:00−8wnw118613 0.0 103221
09:00−6ssw118013 0.0 103391
12:00−3sse21710 0.0 1032334
15:00−2s12600 0.0 1032446
18:00−5s23780 0.0 103428
21:00−5ssw12790 0.0 103521
22 january, fri
fri2200:00−4ssw23630 0.0 103423
03:00−4ssw23560 0.0 103422
06:00−4ssw12540 0.0 103221
09:00−2s12540 0.0 103227
12:00+2sse23470 0.0 1029163
15:00+3se22570 0.0 1028126
18:00−1sse22620 0.0 102921
21:00−2s11630 0.0 102921
23 january, sat
sat2300:00−2se115767 0.0 102921
03:00−3se115583 0.0 102821
06:00−3sse115667 0.0 102821
09:00−2ese115737 0.0 102821
12:00+2ene11480 0.0 1025200
15:00+3ese11460 0.0 1025250
18:00−1s115739 0.0 102621
21:00−1se116241 0.0 102621